KJ4W Weather Reports


Display with metric or nautical units.
time (UTC)temp
F
wind
direction
speed
MPH
gust
MPH
rain 1hr
in
rain 24hr
in
rain mn
in
humidity
%
barometer
mb
20260905234135 90 298 0.0 0.0 0.00 0.00 0.00 66 1010.2
20260905232634 92 298 0.0 0.0 0.00 0.00 0.00 62 1010.1
20260905231136 92 298 0.0 0.0 0.00 0.00 0.00 60 1010.2
20260905225634 93 298 0.0 0.0 0.00 0.00 0.00 61 1010.2
20260905224136 94 298 0.0 0.0 0.00 0.00 0.00 60 1010.2
20260905222635 94 332 0.0 0.0 0.00 0.00 0.00 57 1010.1
20260905221136 95 12 0.0 0.0 0.00 0.00 0.00 54 1010.2
20260905215634 96 355 0.0 0.0 0.00 0.00 0.00 50 1010.2
20260905214135 96 344 0.0 0.0 0.00 0.00 0.00 50 1010.4
20260905212634 97 227 0.0 0.0 0.00 0.00 0.00 47 1010.5
20260905211135 97 166 0.0 0.0 0.00 0.00 0.00 46 1010.5
20260905205635 99 46 2.0 0.0 0.00 0.00 0.00 45 1010.6
20260905204134 100 355 0.0 0.0 0.00 0.00 0.00 43 1010.7
20260905202634 100 184 3.0 0.0 0.00 0.00 0.00 46 1010.8
20260905201135 99 268 1.0 0.0 0.00 0.00 0.00 51 1011.1
20260905195634 100 261 2.0 0.0 0.00 0.00 0.00 50 1011.2
20260905194135 100 274 1.0 0.0 0.00 0.00 0.00 47 1011.6
20260905192634 99 92 1.0 0.0 0.00 0.00 0.00 49 1012.0
20260905191135 98 143 0.0 0.0 0.00 0.00 0.00 48 1012.3
20260905185634 98 247 3.0 0.0 0.00 0.00 0.00 51 1012.3
20260905184134 98 280 4.0 0.0 0.00 0.00 0.00 54 1012.4
20260905182633 97 346 3.0 0.0 0.00 0.00 0.00 50 1012.6
20260905181135 97 28 1.0 0.0 0.00 0.00 0.00 50 1012.8
20260905175640 97 32 3.0 0.0 0.00 0.00 0.00 52 1012.9
20260905174134 96 32 0.0 0.0 0.00 0.00 0.00 61 1013.2
20260905172633 97 94 0.0 0.0 0.00 0.00 0.00 53 1013.2
20260905171135 97 13 2.0 0.0 0.00 0.00 0.00 53 1013.3
20260905165635 97 229 1.0 0.0 0.00 0.00 0.00 52 1013.4
20260905164134 96 248 2.0 0.0 0.00 0.00 0.00 54 1013.5
20260905162633 96 213 1.0 0.0 0.00 0.00 0.00 55 1013.7
20260905161136 95 228 0.0 0.0 0.00 0.00 0.00 57 1013.7
20260905155635 94 161 0.0 0.0 0.00 0.00 0.00 57 1013.8
20260905154135 93 261 0.0 0.0 0.00 0.00 0.00 66 1014.0
20260905152635 91 268 0.0 0.0 0.00 0.00 0.00 65 1014.1
20260905151134 90 242 0.0 0.0 0.00 0.00 0.00 69 1014.2
20260905145633 88 275 0.0 0.0 0.00 0.00 0.00 73 1014.3
20260905144133 87 247 0.0 0.0 0.00 0.00 0.00 77 1014.2
20260905142635 85 245 0.0 0.0 0.00 0.00 0.00 81 1014.3
20260905141135 83 47 0.0 0.0 0.00 0.00 0.00 84 1014.2
20260905135635 81 54 0.0 0.0 0.00 0.00 0.00 91 1014.1
20260905134133 80 139 0.0 0.0 0.00 0.00 0.00 94 1014.0
20260905132634 78 139 0.0 0.0 0.00 0.00 0.00 96 1014.1
20260905131134 77 138 0.0 0.0 0.00 0.00 0.00 97 1014.1
20260905125633 76 139 0.0 0.0 0.00 0.00 0.00 97 1013.8
20260905124134 76 138 0.0 0.0 0.00 0.00 0.00 98 1013.9
20260905122634 75 139 0.0 0.0 0.00 0.00 0.00 98 1013.7
20260905121134 74 139 0.0 0.0 0.00 0.00 0.00 98 1013.6
20260905115634 74 139 0.0 0.0 0.00 0.00 0.00 98 1013.5
20260905114133 74 138 0.0 0.0 0.00 0.00 0.00 97 1013.4
20260905112633 74 138 0.0 0.0 0.00 0.00 0.00 97 1013.3
20260905111133 74 138 0.0 0.0 0.00 0.00 0.00 98 1013.2
20260905105634 74 138 0.0 0.0 0.00 0.00 0.00 97 1013.3
20260905104135 74 139 0.0 0.0 0.00 0.00 0.00 97 1013.1
20260905102633 74 139 0.0 0.0 0.00 0.00 0.00 97 1012.9
20260905095632 74 139 0.0 0.0 0.00 0.00 0.00 97 1012.9
20260905094134 74 138 0.0 0.0 0.00 0.00 0.00 97 1012.9
20260905092633 74 138 0.0 0.0 0.00 0.00 0.00 97 1012.8
20260905091133 74 139 0.0 0.0 0.00 0.00 0.00 97 1012.8
20260905085632 74 139 0.0 0.0 0.00 0.00 0.00 97 1012.8
20260905084134 74 139 0.0 0.0 0.00 0.00 0.00 97 1012.8
20260905082634 74 138 0.0 0.0 0.00 0.00 0.00 97 1012.8
20260905081133 74 139 0.0 0.0 0.00 0.00 0.00 96 1012.8
20260905075632 75 138 0.0 0.0 0.00 0.00 0.00 96 1012.8
20260905074135 75 66 0.0 0.0 0.00 0.00 0.00 97 1012.9
20260905072633 75 66 0.0 0.0 0.00 0.00 0.00 96 1012.9
20260905071135 75 66 0.0 0.0 0.00 0.00 0.00 96 1012.9
20260905065633 76 66 0.0 0.0 0.00 0.00 0.00 96 1012.9
20260905064132 76 66 0.0 0.0 0.00 0.00 0.00 95 1013.1
20260905062632 76 66 0.0 0.0 0.00 0.00 0.00 95 1013.1
20260905061134 76 66 0.0 0.0 0.00 0.00 0.00 94 1013.1
20260905055633 76 66 0.0 0.0 0.00 0.00 0.00 94 1013.1
20260905054133 76 66 0.0 0.0 0.00 0.00 0.00 94 1013.3
20260905052632 77 66 0.0 0.0 0.00 0.00 0.00 94 1013.3
20260905051133 77 66 0.0 0.0 0.00 0.00 0.00 94 1013.3
20260905045633 77 66 0.0 0.0 0.00 0.00 0.00 94 1013.3
20260905044132 77 66 0.0 0.0 0.00 0.00 0.00 94 1013.2
20260905042632 77 66 0.0 0.0 0.00 0.00 0.00 94 1013.3
20260905041133 77 66 0.0 0.0 0.00 0.00 0.00 93 1013.3
20260905035633 77 66 0.0 0.0 0.00 0.00 0.00 93 1013.5
20260905034132 78 66 0.0 0.0 0.00 0.00 0.00 93 1013.4
20260905032631 78 66 0.0 0.0 0.00 0.00 0.00 92 1013.7
20260905031133 78 66 0.0 0.0 0.00 0.00 0.00 92 1013.7
20260905025632 79 66 0.0 0.0 0.00 0.00 0.00 91 1013.6
20260905024132 79 66 0.0 0.0 0.00 0.00 0.00 90 1013.6
20260905022631 79 66 0.0 0.0 0.00 0.00 0.00 89 1013.6
20260905021133 80 66 0.0 0.0 0.00 0.00 0.00 88 1013.6
20260905015632 80 66 0.0 0.0 0.00 0.00 0.00 86 1013.5
20260905014132 81 66 0.0 0.0 0.00 0.00 0.00 86 1013.4
20260905012631 81 66 0.0 0.0 0.00 0.00 0.00 85 1013.3
20260905011133 82 66 0.0 0.0 0.00 0.00 0.00 83 1013.1
20260905005632 83 66 0.0 0.0 0.00 0.00 0.00 82 1012.9
20260905004132 84 66 0.0 0.0 0.00 0.00 0.00 80 1012.8
20260905002631 86 66 0.0 0.0 0.00 0.00 0.00 78 1012.8
20260905001133 87 66 0.0 0.0 0.00 0.00 0.00 76 1012.6
20260904235632 89 66 0.0 0.0 0.00 0.00 0.00 71 1012.7